Flag for Germany Weather past 2 weeks in Achim, Lower Saxony, Germany

Now
30 °F

Chilly.


Feels Like: 30 °F
Forecast: 39 / 61 °F
Wind: 1 mph from Southwest

Location: Bremen Airport


UV Index: 3 (Moderate)

Visibility: 1 mi


Pressure: 30.42 "Hg

Humidity: 100%

Dew point: 30 °F

Location of AchimLocation

Historic Weather in Achim

°F

Achim temperature yesterday

Maximum temperature yesterday: 48 °F (at 1:20 PM)
Minimum temperature yesterday: 39 °F (at 10:50 PM)
Average temperature yesterday: 45 °F

Past Weeks' High & Low Weather Summary

 TemperatureHumidityPressure
High68 °F (Apr 2, 3:20 PM)100% (Apr 2, 5:50 AM)30.42 "Hg (Apr 2, 5:50 AM)
Low28 °F (Apr 16, 4:20 AM)46% (Apr 2, 3:50 PM)29.62 "Hg (Apr 3, 5:20 PM)
Average51 °F81%29.95 "Hg
* Reported Apr 1 5:20 AM — Apr 16 5:20 AM, Achim, Weather by CustomWeather, © 2014

Note: Actual official high and low records may vary slightly from our data, if they occured in-between our weather recording intervals... More about our weather records

Advertising

Historic Weather Conditions — Data for Previous 24 hours

 ConditionsComfort  
Time TempWeatherWind HumidityBarometerVisibility
5:20 AM
Apr 16
30 °FFog.2 mph100%30.42 "HgN/A
4:50 AM32 °FFog.1 mph100%30.42 "Hg5 mi
4:20 AM28 °FFog.3 mph100%30.42 "Hg5 mi
3:50 AM30 °FLight fog.1 mph100%30.39 "Hg2 mi
3:20 AM32 °FFog.2 mph100%30.39 "HgN/A
2:50 AM32 °FFog.1 mph100%30.39 "HgN/A
1:50 AM34 °FClear.6 mph100%30.39 "Hg10 mi
12:50 AM36 °FClear.3 mph100%30.36 "Hg10 mi
12:20 AM36 °FClear.6 mph93%30.36 "Hg10 mi
11:50 PM
Apr 15
39 °FClear.6 mph87%30.36 "Hg10 mi
11:20 PM39 °FClear.7 mph87%30.36 "Hg10 mi
10:50 PM39 °FClear.8 mph93%30.33 "Hg10 mi
10:20 PM41 °FClear.9 mph87%30.33 "Hg10 mi
9:50 PM41 °FClear.8 mph87%30.33 "Hg10 mi
9:20 PM43 °FScattered clouds.8 mph81%30.33 "HgN/A
8:50 PM43 °FScattered clouds.10 mph81%30.30 "HgN/A
8:20 PM45 °FPassing clouds.12 mph71%30.30 "HgN/A
7:50 PM46 °FPassing clouds.14 mph66%30.30 "HgN/A
7:20 PM46 °FPassing clouds.14 mph66%30.27 "HgN/A
6:50 PM46 °FPassing clouds.14 mph66%30.27 "HgN/A
6:20 PM48 °FScattered clouds.16 mph58%30.27 "HgN/A
5:50 PM46 °FScattered clouds.17 mph62%30.27 "HgN/A
5:20 PM48 °FScattered clouds.15 mph58%30.27 "HgN/A
4:50 PM48 °FScattered clouds.15 mph62%30.24 "HgN/A
4:20 PM48 °FBroken clouds.15 mph62%30.24 "HgN/A
3:50 PM48 °FBroken clouds.15 mph62%30.24 "HgN/A
3:20 PM48 °FBroken clouds.17 mph58%30.24 "HgN/A
2:50 PM48 °FScattered clouds.17 mph62%30.24 "HgN/A
2:20 PM48 °FScattered clouds.16 mph62%30.24 "HgN/A
1:50 PM48 °FScattered clouds.17 mph58%30.24 "HgN/A
1:20 PM48 °FBroken clouds.18 mph62%30.21 "HgN/A
12:50 PM46 °FBroken clouds.18 mph66%30.21 "HgN/A
12:20 PM46 °FBroken clouds.15 mph62%30.21 "HgN/A
11:50 AM46 °FBroken clouds.16 mph66%30.21 "HgN/A
11:20 AM46 °FBroken clouds.20 mph62%30.21 "HgN/A
10:50 AM45 °FSprinkles. Broken clouds.17 mph76%30.21 "HgN/A
10:20 AM45 °FPartly sunny.15 mph66%30.18 "HgN/A
9:50 AM45 °FSprinkles. Partly sunny.16 mph66%30.18 "HgN/A
9:20 AM45 °FPartly sunny.17 mph71%30.18 "HgN/A
8:50 AM43 °FSprinkles. Partly sunny.14 mph81%30.18 "HgN/A
8:20 AM43 °FPartly sunny.13 mph76%30.15 "HgN/A
7:50 AM43 °FPartly sunny.14 mph76%30.15 "HgN/A
6:50 AM43 °FSprinkles. Passing clouds.17 mph76%30.12 "HgN/A
Weather by CustomWeather, © 2014

See weather overview